Powrót do katalogu

STARLINK-34585

AktywnyŁącznośćVLEO
NORAD 64779·PAYLOAD·🇺🇸 United States

Wystrzelony Jul 8, 2025 z Cape Canaveral Space Force Station

Loading…

Następne Przeloty (najbliższe 24 godziny)

TLE

ŚwieżeSource: CelesTrak SupGP

Epoka: Sep 15, 2026, 02:37 UTC

1 64779C 25147AA  26258.10951389 -.00015653  00000+0 -46252-3 0  2582
2 64779  53.1575  79.0655 0001262  85.7874  35.0313 15.34394723    10

Śledź STARLINK-34585 w czasie rzeczywistym z AllMySat

Download on the App Store